Location: Coll
(42.4728°N, 0.7714°E)
Time: 06:51:21
(UTC+00:00)

Cosmos 1356 Rocket - Pass Details

Date: 23 October 2020
Orbit: 542 x 598 km, 81.2° (Epoch: 23 November)

Event Time Altitude Azimuth Distance (km) Brightness Sun altitude
Rises 04:52:58 0° 342° (NNW) 2,845 6.8 -16.6°
Reaches altitude 10° 04:55:18 10° 335° (NNW) 1,932 5.8 -16.2°
Maximum altitude 04:59:17 39° 266° (W) 889 3.8 -15.5°
Drops below altitude 10° 05:03:11 10° 198° (SSW) 1,891 5.9 -14.8°
Sets 05:05:26 0° 190° (S) 2,775 6.8 -14.3°
